,,,PA_Meas_PMT16A,,PR_Meas_QMR101_102,,RH_Meas_QMH101,,SR_Meas_QMS101,,TA_Meas_QMH101,,GenWind,,GenWind,
date,time,status,PA,status,PR,status,RH,status,SR,status,TA,status,DirAvg,status,SpdAvg,
2014-06-26, 00:00:04,VALID,1010.38,VALID,0,VALID,104,VALID,0,VALID,25.0759,VALID,295,VALID,0,
2014-06-26, 00:01:04,VALID,1010.37,VALID,0,VALID,104,VALID,0,VALID,25.0778,VALID,295,VALID,0,
2014-06-26, 00:02:04,VALID,1010.37,VALID,0,VALID,104,VALID,0,VALID,25.0759,VALID,295,VALID,0,
2014-06-26, 00:03:04,VALID,1010.39,VALID,0,VALID,104,VALID,0.112112,VALID,25.0759,VALID,295,VALID,0,
2014-06-26, 00:04:04,VALID,1010.37,VALID,0,VALID,104,VALID,0.112112,VALID,25.0759,VALID,295,VALID,0,
2014-06-26, 00:05:04,VALID,1010.36,VALID,0,VALID,104,VALID,0.112112,VALID,25.0759,VALID,295,VALID,0,
2014-06-26, 00:06:04,VALID,1010.35,VALID,0,VALID,104,VALID,0,VALID,25.0564,VALID,295,VALID,0,
2014-06-26, 00:07:04,VALID,1010.34,VALID,0,VALID,104,VALID,0.112112,VALID,25.0564,VALID,295,VALID,0,
2014-06-26, 00:08:04,VALID,1010.31,VALID,0,VALID,104,VALID,0.112112,VALID,25.0174,VALID,295,VALID,0,
2014-06-26, 00:09:04,VALID,1010.3,VALID,0,VALID,104,VALID,0.112112,VALID,24.9979,VALID,295,VALID,0,
2014-06-26, 00:10:04,VALID,1010.27,VALID,0,VALID,104,VALID,0.112112,VALID,24.9998,VALID,295,VALID,0,
2014-06-26, 00:11:04,VALID,1010.25,VALID,0,VALID,104,VALID,0,VALID,24.9822,VALID,295,VALID,0,
2014-06-26, 00:12:04,VALID,1010.24,VALID,0,VALID,104,VALID,0,VALID,24.9608,VALID,295,VALID,0,
2014-06-26, 00:13:04,VALID,1010.21,VALID,0,VALID,104,VALID,0,VALID,24.9608,VALID,295,VALID,0,
2014-06-26, 00:14:04,VALID,1010.23,VALID,0,VALID,104,VALID,0,VALID,24.9803,VALID,295,VALID,0,
2014-06-26, 00:15:04,VALID,1010.18,VALID,0,VALID,104,VALID,0,VALID,24.9822,VALID,295,VALID,0,
2014-06-26, 00:16:04,VALID,1010.19,VALID,0,VALID,104,VALID,0,VALID,24.9413,VALID,295,VALID,0,
2014-06-26, 00:17:04,VALID,1010.21,VALID,0,VALID,104,VALID,0,VALID,24.9413,VALID,295,VALID,0,
2014-06-26, 00:18:04,VALID,1010.18,VALID,0,VALID,104,VALID,0,VALID,24.9413,VALID,295,VALID,0,
2014-06-26, 00:19:04,VALID,1010.22,VALID,0,VALID,104,VALID,0,VALID,24.9413,VALID,295,VALID,0,
2014-06-26, 00:20:04,VALID,1010.2,VALID,0,VALID,104,VALID,0,VALID,24.9413,VALID,295,VALID,0,
2014-06-26, 00:21:04,VALID,1010.19,VALID,0,VALID,104,VALID,0,VALID,24.9627,VALID,295,VALID,0,
2014-06-26, 00:22:04,VALID,1010.23,VALID,0,VALID,104,VALID,0,VALID,24.9608,VALID,295,VALID,0,
2014-06-26, 00:23:04,VALID,1010.24,VALID,0,VALID,104,VALID,0,VALID,24.9803,VALID,295,VALID,0,
2014-06-26, 00:24:04,VALID,1010.24,VALID,0,VALID,104,VALID,0,VALID,24.9608,VALID,295,VALID,0,
2014-06-26, 00:25:04,VALID,1010.24,VALID,0,VALID,104,VALID,0,VALID,24.9608,VALID,295,VALID,0,
2014-06-26, 00:26:04,VALID,1010.24,VALID,0,VALID,104,VALID,0,VALID,24.9608,VALID,295,VALID,0,
2014-06-26, 00:27:04,VALID,1010.24,VALID,0,VALID,104,VALID,0,VALID,24.9608,VALID,295,VALID,0,
2014-06-26, 00:28:04,VALID,1010.27,VALID,0,VALID,104,VALID,0,VALID,24.9608,VALID,295,VALID,0,
2014-06-26, 00:29:04,VALID,1010.23,VALID,0,VALID,104,VALID,0,VALID,24.9413,VALID,295,VALID,0,
2014-06-26, 00:30:04,VALID,1010.24,VALID,0,VALID,104,VALID,0,VALID,24.9608,VALID,295,VALID,0,
2014-06-26, 00:31:04,VALID,1010.22,VALID,0,VALID,104,VALID,0,VALID,24.9608,VALID,295,VALID,0,
2014-06-26, 00:32:04,VALID,1010.19,VALID,0,VALID,104,VALID,0,VALID,24.9608,VALID,295,VALID,0,
2014-06-26, 00:33:04,VALID,1010.16,VALID,0,VALID,104,VALID,0,VALID,24.9822,VALID,295,VALID,0,
2014-06-26, 00:34:04,VALID,1010.16,VALID,0,VALID,104,VALID,0,VALID,24.9803,VALID,295,VALID,0,
2014-06-26, 00:35:04,VALID,1010.16,VALID,0,VALID,104,VALID,0,VALID,24.9803,VALID,295,VALID,0,
2014-06-26, 00:36:04,VALID,1010.14,VALID,0,VALID,104,VALID,0,VALID,24.9803,VALID,295,VALID,0,
2014-06-26, 00:37:04,VALID,1010.15,VALID,0,VALID,104,VALID,0,VALID,24.9803,VALID,295,VALID,0,
2014-06-26, 00:38:04,VALID,1010.12,VALID,0,VALID,104,VALID,0,VALID,24.9803,VALID,295,VALID,0,
2014-06-26, 00:39:04,VALID,1010.16,VALID,0,VALID,104,VALID,0,VALID,24.9998,VALID,295,VALID,0,
2014-06-26, 00:40:04,VALID,1010.13,VALID,0,INVALID,109.01,VALID,0,VALID,24.9998,VALID,295,VALID,0,
2014-06-26, 00:41:04,VALID,1010.13,VALID,0,INVALID,109.01,VALID,0,VALID,24.9998,VALID,295,VALID,0,
2014-06-26, 00:42:04,VALID,1010.14,VALID,0,INVALID,109.033,VALID,0,VALID,25.0388,VALID,295,VALID,0,
2014-06-26, 00:43:04,VALID,1010.1,VALID,0,INVALID,109.033,VALID,0,VALID,25.0583,VALID,295,VALID,0,
2014-06-26, 00:44:04,VALID,1010.1,VALID,0,INVALID,109.132,VALID,0,VALID,25.0388,VALID,295,VALID,0,
2014-06-26, 00:45:04,VALID,1010.08,VALID,0,INVALID,109.17,VALID,0,VALID,25.0583,VALID,295,VALID,0,
2014-06-26, 00:46:04,VALID,1010.04,VALID,0,INVALID,109.224,VALID,0,VALID,25.0583,VALID,295,VALID,0,
2014-06-26, 00:47:04,VALID,1010.03,VALID,0,INVALID,109.239,VALID,0,VALID,25.0583,VALID,295,VALID,0,
2014-06-26, 00:48:04,VALID,1010.06,VALID,0,INVALID,109.254,VALID,0,VALID,25.0778,VALID,295,VALID,0,
2014-06-26, 00:49:04,VALID,1010.05,VALID,0,INVALID,109.269,VALID,0,VALID,25.0992,VALID,295,VALID,0,
2014-06-26, 00:50:04,VALID,1010.03,VALID,0,INVALID,109.269,VALID,0,VALID,25.0778,VALID,295,VALID,0,
2014-06-26, 00:51:04,VALID,1009.98,VALID,0,INVALID,109.292,VALID,0,VALID,25.0778,VALID,295,VALID,0,
2014-06-26, 00:52:04,VALID,1009.96,VALID,0,INVALID,109.3,VALID,0,VALID,25.0778,VALID,295,VALID,0,
2014-06-26, 00:53:04,VALID,1009.93,VALID,0,INVALID,109.376,VALID,0,VALID,25.0778,VALID,295,VALID,0,
2014-06-26, 00:54:04,VALID,1009.93,VALID,0,INVALID,109.376,VALID,0,VALID,25.0973,VALID,295,VALID,0,
2014-06-26, 00:55:04,VALID,1009.88,VALID,0,INVALID,109.391,VALID,0,VALID,25.0973,VALID,295,VALID,0,
2014-06-26, 00:56:04,VALID,1009.87,VALID,0,INVALID,109.376,VALID,0,VALID,25.1362,VALID,295,VALID,0,
2014-06-26, 00:57:04,VALID,1009.85,VALID,0,INVALID,109.391,VALID,0,VALID,25.1557,VALID,295,VALID,0,
2014-06-26, 00:58:04,VALID,1009.83,VALID,0,INVALID,109.391,VALID,0,VALID,25.1538,VALID,295,VALID,0,
2014-06-26, 00:59:04,VALID,1009.81,VALID,0,INVALID,109.399,VALID,0,VALID,25.1947,VALID,295,VALID,0,
2014-06-26, 01:00:04,VALID,1009.81,VALID,0,INVALID,109.43,VALID,0,VALID,25.2142,VALID,295,VALID,0,
2014-06-26, 01:01:04,VALID,1009.84,VALID,0,INVALID,109.43,VALID,0,VALID,25.2337,VALID,295,VALID,0,
2014-06-26, 01:02:04,VALID,1009.8,VALID,0,INVALID,109.46,VALID,0,VALID,25.2337,VALID,295,VALID,0,
2014-06-26, 01:03:04,VALID,1009.81,VALID,0,INVALID,109.506,VALID,0.112112,VALID,25.2123,VALID,295,VALID,0,
2014-06-26, 01:04:04,VALID,1009.81,VALID,0,INVALID,109.521,VALID,0.112112,VALID,25.2318,VALID,295,VALID,0,
2014-06-26, 01:05:04,VALID,1009.81,VALID,0,INVALID,109.559,VALID,0,VALID,25.2532,VALID,295,VALID,0,
2014-06-26, 01:06:04,VALID,1009.82,VALID,0,INVALID,109.582,VALID,0,VALID,25.2532,VALID,295,VALID,0,
2014-06-26, 01:07:04,VALID,1009.79,VALID,0,INVALID,109.597,VALID,0,VALID,25.2727,VALID,295,VALID,0,
2014-06-26, 01:08:04,VALID,1009.8,VALID,0,INVALID,109.605,VALID,0,VALID,25.2532,VALID,295,VALID,0,
2014-06-26, 01:09:04,VALID,1009.81,VALID,0,INVALID,109.628,VALID,0,VALID,25.2318,VALID,295,VALID,0,
2014-06-26, 01:10:04,VALID,1009.81,VALID,0,INVALID,109.651,VALID,0,VALID,25.2337,VALID,295,VALID,0,
2014-06-26, 01:11:04,VALID,1009.8,VALID,0,INVALID,109.674,VALID,0,VALID,25.2337,VALID,295,VALID,0,
2014-06-26, 01:12:04,VALID,1009.81,VALID,0,INVALID,109.658,VALID,0,VALID,25.2142,VALID,295,VALID,0,
2014-06-26, 01:13:04,VALID,1009.78,VALID,0,INVALID,109.681,VALID,0,VALID,25.2142,VALID,295,VALID,0,
2014-06-26, 01:14:04,VALID,1009.76,VALID,0,INVALID,109.704,VALID,0,VALID,25.2142,VALID,295,VALID,0,
2014-06-26, 01:15:04,VALID,1009.73,VALID,0,INVALID,109.735,VALID,0,VALID,25.1947,VALID,295,VALID,0,
2014-06-26, 01:16:04,VALID,1009.73,VALID,0,INVALID,109.727,VALID,0,VALID,25.1947,VALID,295,VALID,0,
2014-06-26, 01:17:04,VALID,1009.74,VALID,0,INVALID,109.757,VALID,0,VALID,25.1947,VALID,295,VALID,0,
2014-06-26, 01:18:04,VALID,1009.74,VALID,0,INVALID,109.765,VALID,0,VALID,25.1752,VALID,295,VALID,0,
2014-06-26, 01:19:04,VALID,1009.74,VALID,0,INVALID,109.757,VALID,0,VALID,25.1752,VALID,295,VALID,0,
2014-06-26, 01:20:04,VALID,1009.75,VALID,0,INVALID,109.757,VALID,0,VALID,25.1538,VALID,295,VALID,0,
2014-06-26, 01:21:04,VALID,1009.73,VALID,0,INVALID,109.773,VALID,0,VALID,25.1557,VALID,295,VALID,0,
2014-06-26, 01:22:04,VALID,1009.75,VALID,0,INVALID,109.773,VALID,0.112112,VALID,25.1752,VALID,295,VALID,0,
2014-06-26, 01:23:04,VALID,1009.74,VALID,0,INVALID,109.765,VALID,0,VALID,25.1557,VALID,295,VALID,0,
2014-06-26, 01:24:04,VALID,1009.7,VALID,0,INVALID,109.803,VALID,0,VALID,25.1752,VALID,295,VALID,0,
2014-06-26, 01:25:04,VALID,1009.69,VALID,0,INVALID,109.788,VALID,0,VALID,25.1343,VALID,295,VALID,0,
2014-06-26, 01:26:04,VALID,1009.67,VALID,0,INVALID,109.811,VALID,0,VALID,25.1362,VALID,295,VALID,0,
2014-06-26, 01:27:04,VALID,1009.65,VALID,0,INVALID,109.826,VALID,0,VALID,25.1362,VALID,295,VALID,0,
2014-06-26, 01:28:04,VALID,1009.64,VALID,0,INVALID,109.803,VALID,0,VALID,25.1167,VALID,295,VALID,0,
2014-06-26, 01:29:04,VALID,1009.62,VALID,0,INVALID,109.818,VALID,0,VALID,25.1167,VALID,295,VALID,0,
2014-06-26, 01:30:04,VALID,1009.61,VALID,0,INVALID,109.834,VALID,0,VALID,25.1167,VALID,295,VALID,0,
2014-06-26, 01:31:04,VALID,1009.6,VALID,0,INVALID,109.849,VALID,0,VALID,25.0973,VALID,295,VALID,0,
2014-06-26, 01:32:04,VALID,1009.6,VALID,0,INVALID,109.887,VALID,0,VALID,25.0778,VALID,295,VALID,0,
2014-06-26, 01:33:04,VALID,1009.59,VALID,0,INVALID,109.864,VALID,0,VALID,25.0778,VALID,295,VALID,0,
2014-06-26, 01:34:04,VALID,1009.59,VALID,0,INVALID,109.849,VALID,0,VALID,25.0583,VALID,295,VALID,0,
2014-06-26, 01:35:04,VALID,1009.58,VALID,0,INVALID,109.849,VALID,0,VALID,25.0583,VALID,295,VALID,0,
2014-06-26, 01:36:04,VALID,1009.61,VALID,0,INVALID,109.857,VALID,0,VALID,25.0583,VALID,295,VALID,0,
2014-06-26, 01:37:04,VALID,1009.59,VALID,0,INVALID,109.841,VALID,0,VALID,25.0778,VALID,295,VALID,0,
2014-06-26, 01:38:04,VALID,1009.62,VALID,0,INVALID,109.849,VALID,0,VALID,25.0778,VALID,295,VALID,0,
2014-06-26, 01:39:04,VALID,1009.62,VALID,0,INVALID,109.834,VALID,0,VALID,25.0973,VALID,295,VALID,0,
2014-06-26, 01:40:04,VALID,1009.61,VALID,0,INVALID,109.834,VALID,0,VALID,25.0973,VALID,295,VALID,0,
2014-06-26, 01:41:04,VALID,1009.59,VALID,0,INVALID,109.841,VALID,0,VALID,25.0973,VALID,295,VALID,0,
2014-06-26, 01:42:04,VALID,1009.58,VALID,0,INVALID,109.857,VALID,0,VALID,25.1167,VALID,295,VALID,0,
2014-06-26, 01:43:04,VALID,1009.54,VALID,0,INVALID,109.857,VALID,0,VALID,25.0973,VALID,295,VALID,0,
2014-06-26, 01:44:04,VALID,1009.48,VALID,0,INVALID,109.872,VALID,0,VALID,25.0564,VALID,295,VALID,0,
2014-06-26, 01:45:04,VALID,1009.46,VALID,0,INVALID,109.864,VALID,0,VALID,25.0973,VALID,295,VALID,0,
2014-06-26, 01:46:04,VALID,1009.39,VALID,0,INVALID,109.879,VALID,0,VALID,25.0973,VALID,295,VALID,0,
2014-06-26, 01:47:04,VALID,1009.35,VALID,0,INVALID,109.864,VALID,0,VALID,25.1362,VALID,295,VALID,0,
2014-06-26, 01:48:04,VALID,1009.31,VALID,0,INVALID,109.849,VALID,0,VALID,25.1752,VALID,295,VALID,0,
2014-06-26, 01:49:04,VALID,1009.25,VALID,0,INVALID,109.826,VALID,0,VALID,25.2142,VALID,295,VALID,0,
2014-06-26, 01:50:04,VALID,1009.22,VALID,0,INVALID,109.849,VALID,0,VALID,25.1928,VALID,295,VALID,0,
2014-06-26, 01:51:04,VALID,1009.21,VALID,0,INVALID,109.849,VALID,0,VALID,25.2142,VALID,295,VALID,0,
2014-06-26, 01:52:04,VALID,1009.18,VALID,0,INVALID,109.872,VALID,0,VALID,25.1928,VALID,295,VALID,0,
2014-06-26, 01:53:04,VALID,1009.17,VALID,0,INVALID,109.879,VALID,0,VALID,25.1928,VALID,295,VALID,0,
2014-06-26, 01:54:04,VALID,1009.16,VALID,0,INVALID,109.887,VALID,0,VALID,25.2142,VALID,295,VALID,0,
2014-06-26, 01:55:04,VALID,1009.18,VALID,0,INVALID,109.948,VALID,0,VALID,25.1947,VALID,295,VALID,0,
2014-06-26, 01:56:05,VALID,1009.18,VALID,0,INVALID,109.971,VALID,0,VALID,25.1752,VALID,295,VALID,0,
2014-06-26, 01:57:05,VALID,1009.19,VALID,0,INVALID,110.001,VALID,0,VALID,25.1771,VALID,295,VALID,0,
2014-06-26, 01:58:05,VALID,1009.18,VALID,0,INVALID,109.994,VALID,0,VALID,25.1167,VALID,295,VALID,0,
2014-06-26, 01:59:05,VALID,1009.18,VALID,0,INVALID,110.017,VALID,0,VALID,25.1187,VALID,295,VALID,0,
2014-06-26, 02:00:05,VALID,1009.15,VALID,0,INVALID,110.032,VALID,0,VALID,25.0778,VALID,295,VALID,0,
2014-06-26, 02:01:05,VALID,1009.18,VALID,0,INVALID,110.009,VALID,0,VALID,25.0583,VALID,295,VALID,0,
2014-06-26, 02:02:05,VALID,1009.12,VALID,0,INVALID,110.009,VALID,0,VALID,25.0388,VALID,295,VALID,0,
2014-06-26, 02:03:05,VALID,1009.16,VALID,0,INVALID,110.017,VALID,0,VALID,25.0193,VALID,295,VALID,0,
2014-06-26, 02:04:05,VALID,1009.16,VALID,0,INVALID,110.024,VALID,0,VALID,24.9998,VALID,295,VALID,0,
2014-06-26, 02:05:05,VALID,1009.15,VALID,0,INVALID,110.001,VALID,0,VALID,24.9803,VALID,295,VALID,0,
2014-06-26, 02:06:05,VALID,1009.19,VALID,0,INVALID,110.009,VALID,0,VALID,24.9803,VALID,295,VALID,0,
2014-06-26, 02:07:05,VALID,1009.24,VALID,0,INVALID,109.986,VALID,0,VALID,24.9608,VALID,295,VALID,0,
2014-06-26, 02:08:05,VALID,1009.26,VALID,0,INVALID,109.979,VALID,0,VALID,24.9803,VALID,295,VALID,0,
2014-06-26, 02:09:05,VALID,1009.27,VALID,0,INVALID,109.971,VALID,0,VALID,24.9998,VALID,295,VALID,0,
2014-06-26, 02:10:05,VALID,1009.27,VALID,0,INVALID,109.963,VALID,0,VALID,25.0017,VALID,295,VALID,0,
2014-06-26, 02:11:05,VALID,1009.26,VALID,0,INVALID,109.971,VALID,0.112112,VALID,24.9784,VALID,295,VALID,0,
2014-06-26, 02:12:05,VALID,1009.26,VALID,0,INVALID,109.994,VALID,0.112112,VALID,24.9979,VALID,295,VALID,0,
2014-06-26, 02:13:05,VALID,1009.24,VALID,0,INVALID,109.994,VALID,0.112112,VALID,25.0193,VALID,295,VALID,0,
2014-06-26, 02:14:05,VALID,1009.23,VALID,0,INVALID,109.986,VALID,0.112112,VALID,24.9998,VALID,295,VALID,0,
2014-06-26, 02:15:05,VALID,1009.22,VALID,0,INVALID,109.986,VALID,0.112112,VALID,24.9979,VALID,295,VALID,0,
2014-06-26, 02:16:05,VALID,1009.23,VALID,0,INVALID,109.963,VALID,0.112112,VALID,25.0174,VALID,295,VALID,0,
2014-06-26, 02:17:05,VALID,1009.22,VALID,0,INVALID,109.963,VALID,0.112112,VALID,25.0369,VALID,295,VALID,0,
2014-06-26, 02:18:05,VALID,1009.24,VALID,0,INVALID,109.971,VALID,0.112112,VALID,25.0564,VALID,295,VALID,0,
2014-06-26, 02:19:05,VALID,1009.24,VALID,0,INVALID,109.979,VALID,0.112112,VALID,25.0759,VALID,295,VALID,0,
2014-06-26, 02:20:05,VALID,1009.26,VALID,0,INVALID,109.963,VALID,0.112112,VALID,25.0759,VALID,295,VALID,0,
2014-06-26, 02:21:05,VALID,1009.28,VALID,0,INVALID,110.017,VALID,0.112112,VALID,25.0954,VALID,295,VALID,0,
2014-06-26, 02:22:05,VALID,1009.32,VALID,0,INVALID,110.017,VALID,0.112112,VALID,25.0954,VALID,295,VALID,0,
2014-06-26, 02:23:05,VALID,1009.34,VALID,0,INVALID,110.055,VALID,0.112112,VALID,25.0954,VALID,295,VALID,0,
2014-06-26, 02:24:05,VALID,1009.32,VALID,0,INVALID,110.047,VALID,0.112112,VALID,25.1148,VALID,295,VALID,0,
2014-06-26, 02:25:05,VALID,1009.35,VALID,0,INVALID,110.047,VALID,0,VALID,25.1362,VALID,295,VALID,0,
2014-06-26, 02:26:05,VALID,1009.32,VALID,0,INVALID,110.078,VALID,0,VALID,25.1576,VALID,295,VALID,0,
2014-06-26, 02:27:05,VALID,1009.3,VALID,0,INVALID,110.078,VALID,0,VALID,25.1362,VALID,295,VALID,0,
2014-06-26, 02:28:05,VALID,1009.27,VALID,0,INVALID,110.078,VALID,0,VALID,25.1362,VALID,295,VALID,0,
2014-06-26, 02:29:05,VALID,1009.24,VALID,0,INVALID,110.047,VALID,0,VALID,25.1362,VALID,295,VALID,0,
2014-06-26, 02:30:05,VALID,1009.21,VALID,0,INVALID,110.078,VALID,0,VALID,25.1362,VALID,295,VALID,0,
2014-06-26, 02:31:05,VALID,1009.17,VALID,0,INVALID,110.04,VALID,0,VALID,25.1557,VALID,295,VALID,0,
2014-06-26, 02:32:05,VALID,1009.16,VALID,0,INVALID,110.055,VALID,0,VALID,25.1362,VALID,295,VALID,0,
2014-06-26, 02:33:05,VALID,1009.2,VALID,0,INVALID,110.063,VALID,0,VALID,25.1362,VALID,295,VALID,0,
2014-06-26, 02:34:05,VALID,1009.2,VALID,0,INVALID,110.078,VALID,0,VALID,25.1362,VALID,295,VALID,0,
2014-06-26, 02:35:05,VALID,1009.21,VALID,0,INVALID,110.024,VALID,0,VALID,25.1771,VALID,295,VALID,0,
2014-06-26, 02:36:05,VALID,1009.21,VALID,0,INVALID,110.078,VALID,0,VALID,25.1752,VALID,295,VALID,0,
2014-06-26, 02:37:05,VALID,1009.22,VALID,0,INVALID,110.063,VALID,0,VALID,25.1966,VALID,295,VALID,0,
2014-06-26, 02:38:05,VALID,1009.26,VALID,0,INVALID,110.04,VALID,0,VALID,25.1966,VALID,295,VALID,0,
2014-06-26, 02:39:05,VALID,1009.29,VALID,0,INVALID,110.047,VALID,0,VALID,25.1771,VALID,295,VALID,0,
2014-06-26, 02:40:05,VALID,1009.31,VALID,0,INVALID,110.07,VALID,0,VALID,25.1557,VALID,295,VALID,0,
2014-06-26, 02:41:05,VALID,1009.34,VALID,0,INVALID,110.07,VALID,0,VALID,25.1167,VALID,295,VALID,0,
2014-06-26, 02:42:05,VALID,1009.32,VALID,0,INVALID,110.04,VALID,0,VALID,25.1362,VALID,295,VALID,0,
2014-06-26, 02:43:05,VALID,1009.35,VALID,0,INVALID,110.024,VALID,0,VALID,25.1167,VALID,295,VALID,0,
2014-06-26, 02:44:05,VALID,1009.32,VALID,0,INVALID,110.024,VALID,0,VALID,25.1167,VALID,295,VALID,0,
2014-06-26, 02:45:05,VALID,1009.31,VALID,0,INVALID,110.024,VALID,0,VALID,25.0973,VALID,295,VALID,0,
2014-06-26, 02:46:05,VALID,1009.3,VALID,0,INVALID,110.017,VALID,0,VALID,25.0778,VALID,295,VALID,0,
2014-06-26, 02:47:05,VALID,1009.27,VALID,0,INVALID,110.032,VALID,0,VALID,25.0583,VALID,295,VALID,0,
2014-06-26, 02:48:05,VALID,1009.24,VALID,0,INVALID,110.009,VALID,0,VALID,25.0193,VALID,295,VALID,0,
2014-06-26, 02:49:05,VALID,1009.22,VALID,0,INVALID,110.001,VALID,0,VALID,24.9998,VALID,295,VALID,0,
2014-06-26, 02:50:05,VALID,1009.18,VALID,0,INVALID,110.017,VALID,0,VALID,24.9803,VALID,295,VALID,0,
2014-06-26, 02:51:05,VALID,1009.2,VALID,0,INVALID,110.032,VALID,0,VALID,24.9608,VALID,295,VALID,0,
2014-06-26, 02:52:05,VALID,1009.17,VALID,0,INVALID,110.024,VALID,0,VALID,24.9608,VALID,295,VALID,0,
2014-06-26, 02:53:05,VALID,1009.17,VALID,0,INVALID,110.024,VALID,0,VALID,24.9218,VALID,295,VALID,0,
2014-06-26, 02:54:05,VALID,1009.16,VALID,0,INVALID,110.04,VALID,0,VALID,24.9218,VALID,295,VALID,0,
2014-06-26, 02:55:05,VALID,1009.18,VALID,0,INVALID,110.063,VALID,0,VALID,24.9218,VALID,295,VALID,0,
2014-06-26, 02:56:05,VALID,1009.19,VALID,0,INVALID,110.055,VALID,0,VALID,24.9218,VALID,295,VALID,0,
2014-06-26, 02:57:05,VALID,1009.21,VALID,0,INVALID,110.063,VALID,0,VALID,24.8809,VALID,295,VALID,0,
2014-06-26, 02:58:05,VALID,1009.22,VALID,0,INVALID,110.07,VALID,0,VALID,24.9023,VALID,295,VALID,0,
2014-06-26, 02:59:05,VALID,1009.25,VALID,0,INVALID,110.078,VALID,0.112112,VALID,24.8615,VALID,295,VALID,0,
2014-06-26, 03:00:05,VALID,1009.27,VALID,0,INVALID,110.063,VALID,0,VALID,24.842,VALID,295,VALID,0,
2014-06-26, 03:01:05,VALID,1009.24,VALID,0,INVALID,110.078,VALID,0,VALID,24.8438,VALID,295,VALID,0,
2014-06-26, 03:02:05,VALID,1009.25,VALID,0,INVALID,110.063,VALID,0,VALID,24.8633,VALID,295,VALID,0,
2014-06-26, 03:03:05,VALID,1009.24,VALID,0,INVALID,110.101,VALID,0,VALID,24.8438,VALID,295,VALID,0,
2014-06-26, 03:04:05,VALID,1009.3,VALID,0,INVALID,110.078,VALID,0,VALID,24.8438,VALID,295,VALID,0,
2014-06-26, 03:05:05,VALID,1009.3,VALID,0,INVALID,110.093,VALID,0,VALID,24.8225,VALID,295,VALID,0,
2014-06-26, 03:06:05,VALID,1009.33,VALID,0,INVALID,110.101,VALID,0,VALID,24.8244,VALID,295,VALID,0,
2014-06-26, 03:07:05,VALID,1009.36,VALID,0,INVALID,110.093,VALID,0,VALID,24.8049,VALID,295,VALID,0,
2014-06-26, 03:08:05,VALID,1009.39,VALID,0,INVALID,110.101,VALID,0,VALID,24.8049,VALID,295,VALID,0,
2014-06-26, 03:09:05,VALID,1009.42,VALID,0,INVALID,110.101,VALID,0,VALID,24.7854,VALID,295,VALID,0,
2014-06-26, 03:10:05,VALID,1009.41,VALID,0,INVALID,110.116,VALID,0,VALID,24.7854,VALID,295,VALID,0,
2014-06-26, 03:11:05,VALID,1009.41,VALID,0,INVALID,110.101,VALID,0,VALID,24.764,VALID,295,VALID,0,
2014-06-26, 03:12:05,VALID,1009.4,VALID,0,INVALID,110.116,VALID,0,VALID,24.7464,VALID,295,VALID,0,
2014-06-26, 03:13:05,VALID,1009.37,VALID,0,INVALID,110.108,VALID,0,VALID,24.7464,VALID,295,VALID,0,
2014-06-26, 03:14:05,VALID,1009.36,VALID,0,INVALID,110.124,VALID,0,VALID,24.7074,VALID,295,VALID,0,
2014-06-26, 03:15:05,VALID,1009.34,VALID,0,INVALID,110.131,VALID,0,VALID,24.7074,VALID,295,VALID,0,
2014-06-26, 03:16:05,VALID,1009.35,VALID,0,INVALID,110.101,VALID,0,VALID,24.7074,VALID,295,VALID,0,
2014-06-26, 03:17:05,VALID,1009.36,VALID,0,INVALID,110.124,VALID,0,VALID,24.6879,VALID,295,VALID,0,
2014-06-26, 03:18:05,VALID,1009.37,VALID,0,INVALID,110.116,VALID,0,VALID,24.7074,VALID,295,VALID,0,
2014-06-26, 03:19:05,VALID,1009.36,VALID,0,INVALID,110.085,VALID,0,VALID,24.6879,VALID,295,VALID,0,
2014-06-26, 03:20:05,VALID,1009.42,VALID,0,INVALID,110.07,VALID,0,VALID,24.686,VALID,295,VALID,0,
2014-06-26, 03:21:05,VALID,1009.41,VALID,0,INVALID,110.063,VALID,0,VALID,24.7269,VALID,311,VALID,0,
2014-06-26, 03:22:05,VALID,1009.48,VALID,0,INVALID,110.04,VALID,0,VALID,24.7269,VALID,311,VALID,0,
2014-06-26, 03:23:05,VALID,1009.51,VALID,0,INVALID,110.07,VALID,0,VALID,24.725,VALID,311,VALID,0,
2014-06-26, 03:24:05,VALID,1009.53,VALID,0,INVALID,110.085,VALID,0,VALID,24.7269,VALID,311,VALID,0,
2014-06-26, 03:25:05,VALID,1009.57,VALID,0,INVALID,110.063,VALID,0,VALID,24.7464,VALID,311,VALID,0,
2014-06-26, 03:26:05,VALID,1009.58,VALID,0,INVALID,110.07,VALID,0,VALID,24.725,VALID,311,VALID,0,
2014-06-26, 03:27:05,VALID,1009.63,VALID,0,INVALID,110.085,VALID,0,VALID,24.7464,VALID,311,VALID,0,
2014-06-26, 03:28:05,VALID,1009.62,VALID,0,INVALID,110.085,VALID,0,VALID,24.7269,VALID,311,VALID,0,
2014-06-26, 03:29:05,VALID,1009.64,VALID,0,INVALID,110.101,VALID,0,VALID,24.7055,VALID,311,VALID,0.00585938,
2014-06-26, 03:30:05,VALID,1009.63,VALID,0,INVALID,110.093,VALID,0,VALID,24.7269,VALID,311,VALID,0.292188,
2014-06-26, 03:31:05,VALID,1009.62,VALID,0,INVALID,110.07,VALID,0,VALID,24.7464,VALID,311,VALID,0.596875,
2014-06-26, 03:32:05,VALID,1009.59,VALID,0,INVALID,110.078,VALID,0,VALID,24.7464,VALID,311,VALID,0.263672,
2014-06-26, 03:33:05,VALID,1009.6,VALID,0,INVALID,110.063,VALID,0,VALID,24.7269,VALID,311,VALID,0,
2014-06-26, 03:34:05,VALID,1009.61,VALID,0,INVALID,110.07,VALID,0,VALID,24.7464,VALID,311,VALID,0,
2014-06-26, 03:35:05,VALID,1009.6,VALID,0,INVALID,110.085,VALID,0,VALID,24.7464,VALID,311,VALID,0,
2014-06-26, 03:36:05,VALID,1009.61,VALID,0,INVALID,110.078,VALID,0,VALID,24.7464,VALID,311,VALID,0,
2014-06-26, 03:37:05,VALID,1009.6,VALID,0,INVALID,110.093,VALID,0,VALID,24.7464,VALID,311,VALID,0,
2014-06-26, 03:38:05,VALID,1009.61,VALID,0,INVALID,110.07,VALID,0,VALID,24.7659,VALID,311,VALID,0,
2014-06-26, 03:39:05,VALID,1009.58,VALID,0,INVALID,110.07,VALID,0,VALID,24.7445,VALID,311,VALID,0,
2014-06-26, 03:40:05,VALID,1009.57,VALID,0,INVALID,110.055,VALID,0,VALID,24.7445,VALID,311,VALID,0,
2014-06-26, 03:41:05,VALID,1009.57,VALID,0,INVALID,110.04,VALID,0,VALID,24.7854,VALID,320,VALID,0.569922,
2014-06-26, 03:42:05,VALID,1009.54,VALID,0,INVALID,110.04,VALID,0,VALID,24.7854,VALID,320,VALID,0.219531,
2014-06-26, 03:43:05,VALID,1009.53,VALID,0,INVALID,110.04,VALID,0,VALID,24.7835,VALID,322,VALID,0.816016,
2014-06-26, 03:44:05,VALID,1009.53,VALID,0,INVALID,110.04,VALID,0,VALID,24.8457,VALID,322,VALID,0.0972656,
2014-06-26, 03:45:05,VALID,1009.53,VALID,0,INVALID,110.04,VALID,0,VALID,24.8438,VALID,322,VALID,0.382422,
2014-06-26, 03:46:05,VALID,1009.54,VALID,0,INVALID,110.063,VALID,0,VALID,24.842,VALID,322,VALID,0,
2014-06-26, 03:47:05,VALID,1009.55,VALID,0,INVALID,110.047,VALID,0,VALID,24.8633,VALID,322,VALID,0,
2014-06-26, 03:48:05,VALID,1009.56,VALID,0,INVALID,110.07,VALID,0,VALID,24.8847,VALID,322,VALID,0,
2014-06-26, 03:49:05,VALID,1009.55,VALID,0,INVALID,110.055,VALID,0,VALID,24.8633,VALID,322,VALID,0,
2014-06-26, 03:50:05,VALID,1009.53,VALID,0,INVALID,110.07,VALID,0,VALID,24.8633,VALID,322,VALID,0,
2014-06-26, 03:51:05,VALID,1009.5,VALID,0,INVALID,110.07,VALID,0,VALID,24.8828,VALID,322,VALID,0,
2014-06-26, 03:52:05,VALID,1009.44,VALID,0,INVALID,110.108,VALID,0,VALID,24.8828,VALID,322,VALID,0,
2014-06-26, 03:53:05,VALID,1009.39,VALID,0,INVALID,110.101,VALID,0,VALID,24.8828,VALID,322,VALID,0,
2014-06-26, 03:54:05,VALID,1009.41,VALID,0,INVALID,110.124,VALID,0,VALID,24.8828,VALID,322,VALID,0,
2014-06-26, 03:55:05,VALID,1009.4,VALID,0,INVALID,110.101,VALID,0,VALID,24.8828,VALID,322,VALID,0,